FW8022 Weather Reports


Display with metric or nautical units.
time (UTC)temp
F
wind
direction
speed
MPH
gust
MPH
rain 1hr
in
rain 24hr
in
rain mn
in
humidity
%
barometer
mb
20260510174544 52 240 2.0 7.0 0.00 0.01 0.01 96 1015.2
20260510174038 52 239 3.0 7.0 0.00 0.01 0.01 96 1015.3
20260510173538 52 253 3.0 7.0 0.00 0.01 0.01 96 1015.3
20260510173042 52 244 3.0 6.0 0.00 0.01 0.01 96 1015.3
20260510172537 52 252 3.0 6.0 0.00 0.01 0.01 96 1015.4
20260510172037 52 266 3.0 5.0 0.00 0.01 0.01 96 1015.3
20260510171556 52 245 2.0 7.0 0.00 0.01 0.01 96 1015.3
20260510171041 52 246 3.0 7.0 0.00 0.01 0.01 96 1015.2
20260510170538 51 215 3.0 7.0 0.00 0.01 0.01 96 1015.2
20260510170045 51 249 3.0 7.0 0.00 0.01 0.01 96 1015.2
20260510165539 52 248 3.0 7.0 0.00 0.01 0.01 96 1015.2
20260510165037 52 232 2.0 8.0 0.00 0.01 0.01 96 1015.2
20260510164548 52 294 2.0 9.0 0.00 0.01 0.01 96 1015.2
20260510164037 51 317 3.0 9.0 0.00 0.01 0.01 96 1015.2
20260510163539 52 252 3.0 8.0 0.00 0.01 0.01 96 1015.2
20260510163044 52 282 2.0 8.0 0.00 0.01 0.01 96 1015.1
20260510162539 52 259 3.0 8.0 0.00 0.01 0.01 96 1015.0
20260510162037 51 240 4.0 11.0 0.00 0.01 0.01 96 1015.0
20260510161543 51 240 4.0 11.0 0.00 0.01 0.01 96 1014.9
20260510161038 52 254 3.0 9.0 0.00 0.01 0.01 96 1014.9
20260510160538 52 253 3.0 9.0 0.00 0.01 0.01 96 1015.0
20260510160048 52 286 2.0 10.0 0.00 0.01 0.01 96 1014.9
20260510155538 51 239 2.0 10.0 0.00 0.01 0.01 96 1014.9
20260510155038 51 234 4.0 8.0 0.00 0.01 0.01 96 1014.9
20260510154601 51 249 3.0 8.0 0.00 0.01 0.01 96 1014.9
20260510154038 51 237 4.0 8.0 0.00 0.01 0.01 96 1014.8
20260510153537 51 275 3.0 9.0 0.00 0.01 0.01 95 1014.8
20260510153100 51 236 4.0 9.0 0.00 0.01 0.01 96 1014.7
20260510152538 51 255 3.0 7.0 0.00 0.01 0.01 96 1014.7
20260510152041 51 228 3.0 7.0 0.00 0.01 0.01 96 1014.7
20260510151547 51 269 2.0 7.0 0.00 0.01 0.01 96 1014.7
20260510151038 51 280 2.0 7.0 0.00 0.01 0.01 96 1014.7
20260510150538 51 261 2.0 6.0 0.00 0.01 0.01 96 1014.6
20260510150106 51 257 2.0 5.0 0.00 0.01 0.01 96 1014.7
20260510145538 51 266 2.0 7.0 0.00 0.01 0.01 96 1014.6
20260510145038 51 272 3.0 7.0 0.01 0.01 0.01 96 1014.5
20260510144606 51 255 2.0 7.0 0.01 0.01 0.01 96 1014.4
20260510144038 51 305 2.0 7.0 0.01 0.01 0.01 96 1014.4
20260510143539 51 265 2.0 7.0 0.01 0.01 0.01 96 1014.4
20260510143053 51 265 2.0 8.0 0.01 0.01 0.01 96 1014.4
20260510142538 51 297 3.0 8.0 0.01 0.01 0.01 96 1014.4
20260510142038 51 281 2.0 10.0 0.01 0.01 0.01 96 1014.3
20260510141551 51 265 3.0 10.0 0.01 0.01 0.01 95 1014.2
20260510141038 51 258 3.0 8.0 0.01 0.01 0.01 95 1014.1
20260510140542 51 257 3.0 8.0 0.01 0.01 0.01 95 1014.1
20260510140052 51 292 2.0 8.0 0.01 0.01 0.01 95 1014.0
20260510135539 51 270 2.0 8.0 0.01 0.01 0.01 95 1014.1
20260510135042 51 273 2.0 10.0 0.00 0.00 0.00 95 1014.0
20260510134549 51 279 3.0 10.0 0.00 0.00 0.00 95 1013.9
20260510134039 51 262 3.0 8.0 0.00 0.00 0.00 95 1013.9
20260510133538 51 279 3.0 7.0 0.00 0.00 0.00 95 1013.9
20260510133044 51 275 2.0 10.0 0.00 0.00 0.00 95 1013.8
20260510132537 51 279 3.0 10.0 0.00 0.00 0.00 95 1013.8
20260510132038 51 304 4.0 10.0 0.00 0.00 0.00 95 1013.8
20260510131543 51 313 4.0 10.0 0.00 0.00 0.00 95 1013.7
20260510131038 52 296 3.0 10.0 0.00 0.00 0.00 95 1013.7
20260510130540 52 278 2.0 8.0 0.00 0.00 0.00 95 1013.6
20260510130052 51 297 4.0 10.0 0.00 0.00 0.00 95 1013.6
20260510125540 51 280 4.0 11.0 0.00 0.00 0.00 95 1013.7
20260510125037 51 286 4.0 11.0 0.00 0.00 0.00 95 1013.7
20260510124548 51 288 3.0 11.0 0.00 0.00 0.00 95 1013.7
20260510124037 51 281 5.0 11.0 0.00 0.00 0.00 95 1013.7
20260510123538 51 286 4.0 10.0 0.00 0.00 0.00 95 1013.7
20260510123048 52 284 4.0 7.0 0.00 0.00 0.00 95 1013.7
20260510122536 52 253 2.0 8.0 0.00 0.00 0.00 95 1013.6
20260510122038 51 294 1.0 9.0 0.00 0.00 0.00 95 1013.7
20260510121546 51 283 3.0 13.0 0.00 0.00 0.00 95 1013.7
20260510121041 51 332 5.0 13.0 0.00 0.00 0.00 95 1013.7
20260510120538 51 288 3.0 10.0 0.00 0.00 0.00 95 1013.7
20260510120043 52 281 3.0 10.0 0.00 0.00 0.00 95 1013.7
20260510115539 51 292 3.0 8.0 0.00 0.00 0.00 95 1013.7
20260510115035 52 286 2.0 8.0 0.00 0.00 0.00 95 1013.7
20260510114541 51 271 2.0 7.0 0.00 0.00 0.00 95 1013.7
20260510114037 51 282 3.0 8.0 0.00 0.00 0.00 95 1013.7
20260510113537 52 304 3.0 8.0 0.00 0.00 0.00 95 1013.8
20260510113051 52 271 3.0 8.0 0.00 0.00 0.00 95 1013.7
20260510112538 51 306 2.0 9.0 0.00 0.00 0.00 95 1013.7
20260510112037 51 261 2.0 10.0 0.00 0.00 0.00 95 1013.7
20260510111547 51 315 4.0 10.0 0.00 0.00 0.00 95 1013.7
20260510111038 51 235 3.0 10.0 0.00 0.00 0.00 95 1013.7
20260510110540 52 275 3.0 7.0 0.00 0.00 0.00 95 1013.7
20260510110044 52 265 3.0 7.0 0.00 0.00 0.00 95 1013.7
20260510105538 52 261 2.0 7.0 0.00 0.00 0.00 95 1013.6
20260510105035 52 254 2.0 9.0 0.00 0.00 0.00 95 1013.6
20260510104555 52 286 3.0 10.0 0.00 0.00 0.00 95 1013.6
20260510104037 52 243 3.0 10.0 0.00 0.00 0.00 95 1013.6
20260510103536 52 267 3.0 10.0 0.00 0.00 0.00 95 1013.6
20260510103052 52 269 4.0 10.0 0.00 0.00 0.00 95 1013.6
20260510102538 52 273 3.0 7.0 0.00 0.00 0.00 95 1013.6
20260510102037 52 292 2.0 8.0 0.00 0.00 0.00 95 1013.7
20260510101550 52 277 3.0 8.0 0.00 0.00 0.00 95 1013.7
20260510101037 52 279 2.0 9.0 0.00 0.00 0.00 95 1013.7
20260510100538 52 281 4.0 10.0 0.00 0.00 0.00 95 1013.7
20260510100054 52 272 2.0 10.0 0.00 0.00 0.00 95 1013.7
20260510095538 52 292 3.0 10.0 0.00 0.00 0.00 95 1013.7
20260510095036 52 277 2.0 8.0 0.00 0.00 0.00 95 1013.7
20260510094553 52 254 3.0 7.0 0.00 0.00 0.00 95 1013.8
20260510094037 52 268 3.0 7.0 0.00 0.00 0.00 95 1013.7
20260510093537 52 271 2.0 9.0 0.00 0.00 0.00 95 1013.8
20260510093049 52 279 3.0 9.0 0.00 0.00 0.00 95 1013.8
20260510092537 52 291 3.0 8.0 0.00 0.00 0.00 95 1013.8
20260510092037 52 254 3.0 8.0 0.00 0.00 0.00 95 1013.7
20260510091543 52 311 3.0 9.0 0.00 0.00 0.00 95 1013.7
20260510091040 52 262 3.0 10.0 0.00 0.00 0.00 95 1013.8
20260510090541 52 292 4.0 10.0 0.00 0.00 0.00 94 1013.7
20260510090110 51 273 3.0 12.0 0.00 0.00 0.00 94 1013.8
20260510085537 52 271 3.0 12.0 0.00 0.00 0.00 94 1013.9
20260510085037 52 234 3.0 8.0 0.00 0.00 0.00 94 1013.8
20260510084559 52 294 3.0 8.0 0.00 0.00 0.00 94 1013.9
20260510084037 52 273 3.0 9.0 0.00 0.00 0.00 94 1013.9
20260510083537 51 265 2.0 9.0 0.00 0.00 0.00 94 1013.9
20260510083110 52 262 4.0 10.0 0.00 0.00 0.00 94 1013.9
20260510082539 52 287 3.0 10.0 0.00 0.00 0.00 94 1013.9
20260510082037 52 268 3.0 10.0 0.00 0.00 0.00 94 1013.9
20260510081604 52 258 3.0 9.0 0.00 0.00 0.00 94 1014.0
20260510081037 52 284 3.0 9.0 0.00 0.00 0.00 94 1013.9
20260510080537 52 239 3.0 9.0 0.00 0.00 0.00 94 1014.0
20260510080046 52 277 3.0 10.0 0.00 0.00 0.00 94 1014.0
20260510075536 52 261 3.0 10.0 0.00 0.00 0.00 94 1014.0
20260510075036 52 268 3.0 9.0 0.00 0.00 0.00 94 1014.0
20260510074544 52 273 4.0 9.0 0.00 0.00 0.00 94 1014.0
20260510074037 52 292 3.0 8.0 0.00 0.00 0.00 94 1014.0
20260510073536 52 262 3.0 8.0 0.00 0.00 0.00 94 1014.1
20260510073055 52 286 3.0 8.0 0.00 0.00 0.00 94 1014.1
20260510072536 52 284 3.0 8.0 0.00 0.00 0.00 94 1014.1
20260510072040 52 284 3.0 7.0 0.00 0.00 0.00 94 1014.2
20260510071552 52 288 3.0 9.0 0.00 0.00 0.00 94 1014.1
20260510071037 52 266 3.0 9.0 0.00 0.00 0.00 94 1014.1
20260510070537 52 285 3.0 10.0 0.00 0.00 0.00 94 1014.1
20260510070039 52 256 3.0 10.0 0.00 0.00 0.00 94 1014.1
20260510065538 52 270 3.0 10.0 0.00 0.00 0.00 93 1014.2
20260510065037 52 302 4.0 8.0 0.00 0.00 0.00 93 1014.1
20260510064548 52 272 2.0 8.0 0.00 0.00 0.00 93 1014.2
20260510064036 52 254 3.0 9.0 0.00 0.00 0.00 93 1014.1
20260510063537 52 244 3.0 9.0 0.00 0.00 0.00 93 1014.1
20260510063046 52 279 3.0 9.0 0.00 0.00 0.00 93 1014.1
20260510062537 52 257 2.0 8.0 0.00 0.00 0.00 93 1014.0
20260510062036 52 261 2.0 9.0 0.00 0.00 0.00 93 1014.1
20260510061554 52 250 3.0 9.0 0.00 0.00 0.00 93 1014.1
20260510061037 52 269 3.0 8.0 0.00 0.00 0.00 93 1014.0
20260510060537 52 231 2.0 7.0 0.00 0.00 0.00 93 1014.0
20260510060046 52 294 2.0 7.0 0.00 0.00 0.00 93 1014.1
20260510055536 52 285 3.0 9.0 0.00 0.00 0.00 93 1014.0
20260510055036 52 286 4.0 9.0 0.00 0.00 0.00 93 1014.1
20260510054541 52 295 3.0 8.0 0.00 0.00 0.00 93 1014.1
20260510054037 52 288 3.0 8.0 0.00 0.00 0.00 93 1014.1
20260510053537 52 286 3.0 8.0 0.00 0.00 0.00 93 1014.1
20260510053055 53 301 4.0 8.0 0.00 0.00 0.00 93 1014.1
20260510052537 53 253 2.0 8.0 0.00 0.00 0.00 93 1014.1
20260510052037 53 263 2.0 8.0 0.00 0.00 0.00 93 1014.2
20260510051545 53 313 3.0 8.0 0.00 0.00 0.00 93 1014.2
20260510051037 53 277 2.0 7.0 0.00 0.00 0.00 93 1014.3
20260510050539 53 266 2.0 9.0 0.00 0.00 0.00 93 1014.2
20260510050044 53 246 4.0 10.0 0.00 0.00 0.00 92 1014.2
20260510045537 53 250 3.0 10.0 0.00 0.00 0.00 93 1014.2
20260510045037 53 271 3.0 10.0 0.00 0.00 0.00 93 1014.2
20260510044548 53 273 4.0 10.0 0.00 0.00 0.00 93 1014.2
20260510044037 53 265 3.0 8.0 0.00 0.00 0.00 93 1014.2
20260510043536 53 321 3.0 9.0 0.00 0.00 0.00 93 1014.1
20260510043044 53 259 3.0 9.0 0.00 0.00 0.00 93 1014.1
20260510042538 53 266 3.0 9.0 0.00 0.00 0.00 92 1014.0
20260510042040 53 248 2.0 9.0 0.00 0.00 0.00 92 1014.0
20260510041541 53 254 3.0 7.0 0.00 0.00 0.00 92 1014.0
20260510041037 53 281 3.0 9.0 0.00 0.00 0.00 92 1014.0
20260510040539 53 227 3.0 9.0 0.00 0.00 0.00 92 1013.9
20260510035537 53 240 4.0 10.0 0.00 0.00 0.00 92 1013.8
20260510035037 53 275 3.0 10.0 0.00 0.00 0.00 92 1013.8
20260510034554 53 288 3.0 10.0 0.00 0.00 0.00 92 1013.8
20260510034037 53 254 3.0 10.0 0.00 0.00 0.00 92 1013.7
20260510033539 53 259 3.0 10.0 0.00 0.00 0.00 92 1013.7
20260510033043 53 225 4.0 10.0 0.00 0.00 0.00 92 1013.8
20260510032536 53 240 3.0 9.0 0.00 0.00 0.00 92 1013.7
20260510032040 53 278 4.0 9.0 0.00 0.00 0.00 92 1013.7
20260510031557 53 254 3.0 9.0 0.00 0.00 0.00 92 1013.6
20260510031036 53 288 3.0 11.0 0.00 0.00 0.00 92 1013.8
20260510030537 53 264 4.0 11.0 0.00 0.00 0.00 92 1013.7
20260510030042 53 246 3.0 9.0 0.00 0.00 0.00 92 1013.7
20260510025537 53 269 3.0 9.0 0.00 0.00 0.00 92 1013.7
20260510025038 53 251 3.0 9.0 0.00 0.00 0.00 91 1013.6
20260510024550 53 280 3.0 9.0 0.00 0.00 0.00 91 1013.7
20260510024037 53 252 3.0 9.0 0.00 0.00 0.00 91 1013.7
20260510023537 53 256 3.0 9.0 0.00 0.00 0.00 91 1013.7
20260510023047 53 239 3.0 9.0 0.00 0.00 0.00 91 1013.7
20260510022540 53 265 4.0 11.0 0.00 0.00 0.00 91 1013.7
20260510022041 53 244 4.0 11.0 0.00 0.00 0.00 91 1013.7
20260510021544 54 268 4.0 10.0 0.00 0.00 0.00 91 1013.7
20260510021036 53 254 4.0 9.0 0.00 0.00 0.00 91 1013.8
20260510020536 54 240 4.0 9.0 0.00 0.00 0.00 91 1013.9
20260510020054 54 246 4.0 9.0 0.00 0.00 0.00 91 1013.9
20260510015539 54 254 4.0 9.0 0.00 0.00 0.00 91 1013.9
20260510015037 54 281 3.0 8.0 0.00 0.00 0.00 91 1013.9
20260510014546 54 239 3.0 9.0 0.00 0.00 0.00 91 1013.9
20260510014037 54 234 4.0 9.0 0.00 0.00 0.00 91 1013.9
20260510013538 54 268 4.0 9.0 0.00 0.00 0.00 90 1014.0
20260510013049 54 277 3.0 10.0 0.00 0.00 0.00 90 1014.0
20260510012540 54 255 4.0 10.0 0.00 0.00 0.00 90 1014.0
20260510012039 54 284 3.0 10.0 0.00 0.00 0.00 90 1014.1
20260510011551 54 259 5.0 10.0 0.00 0.00 0.00 90 1014.1
20260510011039 54 273 4.0 8.0 0.00 0.00 0.00 90 1014.1
20260510010535 54 269 3.0 9.0 0.00 0.00 0.00 90 1014.1
20260510010045 54 227 4.0 10.0 0.00 0.00 0.00 90 1014.2
20260510005537 54 248 4.0 10.0 0.00 0.00 0.00 90 1014.2
20260510005037 54 244 4.0 10.0 0.00 0.00 0.00 90 1014.1
20260510004546 54 251 4.0 10.0 0.00 0.00 0.00 90 1014.1
20260510004036 54 252 4.0 9.0 0.00 0.00 0.00 90 1014.2
20260510003537 54 301 4.0 14.0 0.00 0.00 0.00 89 1014.2
20260510003048 54 276 3.0 14.0 0.00 0.00 0.00 89 1014.3
20260510002540 55 252 4.0 11.0 0.00 0.00 0.00 89 1014.3
20260510002036 55 272 4.0 11.0 0.00 0.00 0.00 89 1014.2
20260510001542 55 311 4.0 8.0 0.00 0.00 0.00 89 1014.3
20260510001036 55 266 4.0 8.0 0.00 0.00 0.00 89 1014.2
20260510000536 55 254 4.0 9.0 0.00 0.00 0.00 89 1014.3
20260510000041 55 260 4.0 9.0 0.00 0.00 0.00 89 1014.3
20260509235536 55 296 4.0 9.0 0.00 0.00 0.00 89 1014.3
20260509235036 55 278 4.0 9.0 0.00 0.00 0.00 89 1014.3
20260509234541 55 239 4.0 8.0 0.00 0.00 0.00 89 1014.4
20260509234036 55 249 3.0 10.0 0.00 0.00 0.00 89 1014.3
20260509233538 55 248 4.0 10.0 0.00 0.00 0.00 89 1014.4
20260509233047 55 283 4.0 9.0 0.00 0.00 0.00 89 1014.4
20260509232537 55 271 4.0 10.0 0.00 0.00 0.00 89 1014.4
20260509232037 55 278 4.0 12.0 0.00 0.00 0.00 89 1014.4
20260509231553 55 257 4.0 12.0 0.00 0.00 0.00 89 1014.4
20260509231036 55 158 4.0 9.0 0.00 0.00 0.00 88 1014.6
20260509230536 55 236 3.0 10.0 0.00 0.00 0.00 88 1014.5
20260509230044 55 267 4.0 10.0 0.00 0.00 0.00 88 1014.5
20260509225537 55 242 5.0 10.0 0.00 0.00 0.00 88 1014.5
20260509225036 55 262 4.0 10.0 0.00 0.00 0.00 88 1014.6
20260509224541 55 211 3.0 10.0 0.00 0.00 0.00 88 1014.6
20260509224036 55 257 4.0 10.0 0.00 0.00 0.00 88 1014.6
20260509223536 56 247 3.0 10.0 0.00 0.00 0.00 88 1014.7
20260509223050 56 281 5.0 10.0 0.00 0.00 0.00 88 1014.8
20260509222538 56 274 4.0 9.0 0.00 0.00 0.00 88 1014.9
20260509222036 55 285 3.0 9.0 0.00 0.00 0.00 88 1015.0
20260509221551 55 272 5.0 11.0 0.00 0.00 0.00 88 1015.0
20260509221037 56 256 3.0 11.0 0.00 0.00 0.00 88 1015.0
20260509220537 56 269 4.0 11.0 0.00 0.00 0.00 87 1015.0
20260509220054 56 254 4.0 10.0 0.00 0.00 0.00 87 1015.0
20260509215536 56 272 4.0 10.0 0.00 0.00 0.00 87 1015.0
20260509215110 56 274 4.0 10.0 0.00 0.00 0.00 87 1015.0
20260509214546 56 224 3.0 10.0 0.00 0.00 0.00 87 1015.0
20260509214038 56 246 4.0 9.0 0.00 0.00 0.00 87 1015.0
20260509213540 56 240 3.0 10.0 0.00 0.00 0.00 87 1015.1
20260509213054 56 264 3.0 10.0 0.00 0.00 0.00 87 1015.1
20260509212539 57 273 4.0 10.0 0.00 0.00 0.00 87 1015.1
20260509212037 56 216 4.0 10.0 0.00 0.00 0.00 87 1015.2
20260509211548 56 254 5.0 10.0 0.00 0.00 0.00 87 1015.1
20260509211038 56 230 4.0 10.0 0.00 0.00 0.00 87 1015.2
20260509210539 56 275 4.0 10.0 0.00 0.00 0.00 87 1015.2
20260509210047 56 257 4.0 10.0 0.00 0.00 0.00 86 1015.2
20260509205538 56 260 4.0 10.0 0.00 0.00 0.00 86 1015.2
20260509205040 57 269 3.0 9.0 0.00 0.00 0.00 87 1015.2
20260509204554 56 286 3.0 10.0 0.00 0.00 0.00 87 1015.2
20260509204038 56 278 4.0 10.0 0.00 0.00 0.00 86 1015.2
20260509203538 57 268 4.0 10.0 0.00 0.00 0.00 87 1015.3
20260509203053 57 215 4.0 10.0 0.00 0.00 0.00 86 1015.3
20260509202538 57 277 3.0 9.0 0.00 0.00 0.00 86 1015.3
20260509202041 57 265 3.0 9.0 0.00 0.00 0.00 87 1015.3
20260509201546 56 297 3.0 9.0 0.00 0.00 0.00 87 1015.4
20260509201037 56 245 3.0 6.0 0.00 0.00 0.00 86 1015.4
20260509200537 57 234 3.0 7.0 0.00 0.00 0.00 86 1015.4
20260509200049 56 248 3.0 7.0 0.00 0.00 0.00 86 1015.5
20260509195543 56 246 3.0 7.0 0.00 0.00 0.00 86 1015.5
20260509195038 56 234 3.0 8.0 0.00 0.00 0.00 86 1015.4
20260509194552 56 241 3.0 8.0 0.00 0.00 0.00 87 1015.4
20260509194038 56 238 3.0 7.0 0.00 0.00 0.00 87 1015.3
20260509193538 56 249 3.0 7.0 0.00 0.00 0.00 87 1015.4
20260509193045 56 225 3.0 7.0 0.00 0.00 0.00 87 1015.4
20260509192540 56 239 3.0 7.0 0.00 0.00 0.00 86 1015.5
20260509192042 56 245 2.0 7.0 0.00 0.00 0.00 87 1015.5
20260509191543 56 215 3.0 6.0 0.00 0.00 0.00 87 1015.6
20260509191041 56 245 2.0 6.0 0.00 0.00 0.00 87 1015.6
20260509190537 55 254 3.0 6.0 0.00 0.00 0.00 88 1015.6
20260509190054 55 238 3.0 7.0 0.00 0.00 0.00 87 1015.7
20260509185537 55 248 3.0 7.0 0.00 0.00 0.00 87 1015.7
20260509185037 55 244 3.0 7.0 0.00 0.00 0.00 88 1015.6
20260509184607 55 251 3.0 7.0 0.00 0.00 0.00 88 1015.6
20260509184038 55 251 2.0 7.0 0.00 0.00 0.00 88 1015.5
20260509183537 55 249 3.0 7.0 0.00 0.00 0.00 88 1015.5
20260509183055 55 242 2.0 4.0 0.00 0.00 0.00 89 1015.5
20260509182536 55 234 2.0 7.0 0.00 0.00 0.00 89 1015.5
20260509182036 54 279 2.0 7.0 0.00 0.00 0.00 89 1015.5
20260509181550 54 289 3.0 7.0 0.00 0.00 0.00 89 1015.6
20260509181036 54 277 3.0 6.0 0.00 0.00 0.00 90 1015.7
20260509180537 54 254 2.0 6.0 0.00 0.00 0.00 90 1015.6
20260509180050 54 273 2.0 9.0 0.00 0.00 0.00 90 1015.7
20260509175539 54 289 2.0 9.0 0.00 0.00 0.00 91 1015.7
20260509175036 54 285 2.0 6.0 0.00 0.00 0.00 91 1015.7